Location: Charlotte
(35.2269°N, 80.8433°W)
Time: 10:54:00
(UTC-05:00)

ISS - Visible Passes

Search period start: 20 February 2018 00:00
Search period end: 02 March 2018 00:00
Orbit: 403 x 407 km, 51.6° (Epoch: 21 February)

Date Brightness Start Highest point End Pass type
(mag) Time Alt. Az. Time Alt. Az. Time Alt. Az.
25 Feb -1.5 05:48:41 10° S 05:51:22 23° SE 05:54:03 10° ENE visible
26 Feb -0.7 04:58:11 10° SSE 04:59:18 11° SE 05:00:25 10° ESE visible
27 Feb -3.6 05:41:20 24° SW 05:43:07 69° SE 05:46:22 10° NE visible
28 Feb -1.7 04:51:47 26° E 04:51:47 26° E 04:53:51 10° ENE visible
28 Feb -2.4 06:24:44 10° W 06:27:25 23° NNW 06:30:06 10° NNE visible
01 Mar -3.3 05:34:44 40° NW 05:34:59 41° NW 05:38:07 10° NE visible
